TimeCST,TemperatureF,Dew PointF,Humidity,Sea Level PressureIn,VisibilityMPH,Wind Direction,Wind SpeedMPH,Gust SpeedMPH,PrecipitationIn,Events,Conditions,WindDirDegrees,DateUTC
12:15 AM,20.1,11.5,69,29.72,10.0,North,5.8,-,N/A,,Scattered Clouds,350,2014-02-14 06:15:00
12:35 AM,19.4,11.8,72,29.72,10.0,North,4.6,-,N/A,,Clear,350,2014-02-14 06:35:00
12:55 AM,19.4,12.2,74,29.72,10.0,NNW,3.5,-,N/A,,Scattered Clouds,340,2014-02-14 06:55:00
1:15 AM,20.1,12.2,71,29.71,10.0,North,4.6,-,N/A,,Mostly Cloudy,360,2014-02-14 07:15:00
1:35 AM,20.1,12.0,71,29.70,10.0,NNE,6.9,-,N/A,,Overcast,20,2014-02-14 07:35:00
1:55 AM,20.3,12.0,70,29.73,10.0,North,6.9,-,N/A,,Overcast,350,2014-02-14 07:55:00
2:15 AM,20.5,11.8,69,29.76,10.0,West,4.6,-,N/A,,Overcast,260,2014-02-14 08:15:00
2:35 AM,20.1,12.7,73,29.72,3.0,NE,4.6,-,N/A,Snow,Light Snow,40,2014-02-14 08:35:00
2:55 AM,19.4,14.0,80,29.72,3.0,Calm,Calm,-,N/A,Snow,Light Snow,0,2014-02-14 08:55:00
3:15 AM,19.0,15.4,86,29.69,1.5,East,5.8,-,N/A,Snow,Light Snow,90,2014-02-14 09:15:00
3:35 AM,18.1,15.3,88,29.69,1.8,East,3.5,-,N/A,Snow,Light Snow,100,2014-02-14 09:35:00
4:15 AM,18.0,14.9,88,29.69,3.0,NE,6.9,-,0.01,Snow,Light Snow,40,2014-02-14 10:15:00
4:35 AM,17.4,14.9,90,29.68,1.0,NE,8.1,-,0.02,Snow,Light Snow,50,2014-02-14 10:35:00
4:55 AM,17.2,14.9,91,29.68,0.8,NE,6.9,-,0.02,Snow,Snow,40,2014-02-14 10:55:00
5:15 AM,17.1,14.7,91,29.68,1.5,NE,9.2,-,0.01,Snow,Light Snow,40,2014-02-14 11:15:00
5:35 AM,16.5,14.0,90,29.69,2.0,NNE,9.2,-,0.03,Snow,Light Snow,20,2014-02-14 11:35:00
5:55 AM,16.2,13.5,89,29.69,1.8,North,11.5,-,0.04,Snow,Light Snow,360,2014-02-14 11:55:00
6:15 AM,15.6,12.9,89,29.71,1.0,North,13.8,-,N/A,Snow,Snow,360,2014-02-14 12:15:00
6:35 AM,15.6,13.1,90,29.72,1.2,North,15.0,20.7,N/A,Snow,Light Snow,360,2014-02-14 12:35:00
6:55 AM,15.6,12.9,89,29.73,1.8,North,15.0,19.6,N/A,Snow,Light Snow,360,2014-02-14 12:55:00
7:15 AM,15.4,12.7,89,29.76,4.0,North,15.0,-,N/A,Snow,Light Snow,350,2014-02-14 13:15:00
7:35 AM,15.3,12.2,88,29.77,2.5,North,17.3,21.9,N/A,Snow,Light Snow,350,2014-02-14 13:35:00
7:55 AM,15.1,12.0,88,29.79,4.0,North,16.1,-,N/A,Snow,Light Snow,350,2014-02-14 13:55:00
8:15 AM,15.3,12.2,88,29.81,5.0,NNW,13.8,18.4,N/A,Snow,Light Snow,330,2014-02-14 14:15:00
8:35 AM,14.5,10.4,84,29.82,7.0,NNW,19.6,24.2,N/A,,Overcast,340,2014-02-14 14:35:00
8:55 AM,14.5,10.2,83,29.83,10.0,NNW,17.3,-,N/A,,Overcast,340,2014-02-14 14:55:00
9:15 AM,14.0,9.3,82,29.84,10.0,NNW,15.0,-,N/A,,Overcast,340,2014-02-14 15:15:00
9:35 AM,14.4,9.3,80,29.86,7.0,North,13.8,21.9,N/A,Snow,Light Snow,350,2014-02-14 15:35:00
9:55 AM,14.9,9.7,80,29.86,10.0,NNW,16.1,-,N/A,,Overcast,340,2014-02-14 15:55:00
10:15 AM,14.9,10.4,82,29.87,10.0,NNW,10.4,-,N/A,,Overcast,340,2014-02-14 16:15:00
10:35 AM,15.3,10.0,80,29.88,4.0,NNW,15.0,-,N/A,Snow,Light Snow,330,2014-02-14 16:35:00
10:55 AM,16.0,10.4,79,29.89,4.0,NNW,17.3,23.0,N/A,Snow,Light Snow,340,2014-02-14 16:55:00
11:15 AM,17.1,10.8,76,29.90,7.0,NNW,16.1,21.9,N/A,Snow,Light Snow,330,2014-02-14 17:15:00
11:35 AM,16.3,10.0,76,29.91,7.0,NNW,13.8,-,N/A,,Overcast,330,2014-02-14 17:35:00
11:55 AM,17.2,10.6,75,29.92,5.0,NNW,15.0,-,N/A,,Haze,340,2014-02-14 17:55:00
12:15 PM,17.2,10.6,75,29.91,5.0,NNW,12.7,19.6,N/A,Snow,Light Snow,330,2014-02-14 18:15:00
12:35 PM,16.7,9.9,74,29.92,10.0,NW,13.8,-,N/A,,Overcast,320,2014-02-14 18:35:00
12:55 PM,17.4,9.5,71,29.92,10.0,NNW,15.0,-,N/A,,Mostly Cloudy,340,2014-02-14 18:55:00
1:15 PM,17.8,10.4,73,29.93,10.0,NW,16.1,-,N/A,,Scattered Clouds,310,2014-02-14 19:15:00
1:35 PM,18.1,9.7,70,29.93,10.0,NW,15.0,20.7,N/A,,Scattered Clouds,310,2014-02-14 19:35:00
1:55 PM,17.2,8.6,69,29.94,10.0,NW,16.1,-,N/A,,Scattered Clouds,310,2014-02-14 19:55:00
2:15 PM,17.2,7.9,67,29.94,10.0,NW,17.3,-,N/A,,Clear,320,2014-02-14 20:15:00
2:35 PM,17.2,8.1,67,29.95,7.0,NNW,15.0,-,N/A,,Clear,330,2014-02-14 20:35:00
2:55 PM,17.4,7.9,66,29.95,10.0,NNW,12.7,-,N/A,,Clear,330,2014-02-14 20:55:00
3:15 PM,17.8,8.1,66,29.96,10.0,NW,15.0,19.6,N/A,,Clear,320,2014-02-14 21:15:00
3:35 PM,18.0,7.3,63,29.97,10.0,NW,16.1,20.7,N/A,,Clear,310,2014-02-14 21:35:00
3:55 PM,17.6,7.7,65,29.98,10.0,NW,15.0,-,N/A,,Clear,310,2014-02-14 21:55:00
4:15 PM,17.6,7.3,64,29.99,10.0,NW,15.0,-,N/A,,Clear,320,2014-02-14 22:15:00
4:35 PM,17.4,7.2,64,29.99,10.0,WNW,15.0,-,N/A,,Clear,300,2014-02-14 22:35:00
4:55 PM,17.1,6.8,64,29.99,10.0,NW,12.7,-,N/A,,Clear,310,2014-02-14 22:55:00
5:15 PM,16.5,7.2,67,30.01,10.0,NW,9.2,-,N/A,,Clear,310,2014-02-14 23:15:00
5:35 PM,15.8,6.4,67,30.02,10.0,NW,10.4,-,N/A,,Clear,320,2014-02-14 23:35:00
5:55 PM,14.5,6.1,69,30.03,10.0,NW,9.2,-,N/A,,Clear,320,2014-02-14 23:55:00
6:15 PM,14.0,6.1,71,30.03,10.0,NW,10.4,-,N/A,,Clear,320,2014-02-15 00:15:00
6:35 PM,13.3,5.7,72,30.05,10.0,NW,9.2,-,N/A,,Clear,310,2014-02-15 00:35:00
6:55 PM,12.7,5.4,72,30.04,10.0,NW,8.1,-,N/A,,Clear,310,2014-02-15 00:55:00
7:15 PM,12.0,4.8,73,30.05,10.0,NW,9.2,-,N/A,,Clear,320,2014-02-15 01:15:00
7:35 PM,10.8,4.1,75,30.04,10.0,NW,4.6,-,N/A,,Clear,310,2014-02-15 01:35:00
7:55 PM,8.1,2.8,79,30.05,10.0,NW,4.6,-,N/A,,Clear,310,2014-02-15 01:55:00
8:15 PM,8.4,3.4,80,30.05,10.0,NW,4.6,-,N/A,,Clear,320,2014-02-15 02:15:00
8:35 PM,8.4,3.2,79,30.06,10.0,NW,4.6,-,N/A,,Clear,320,2014-02-15 02:35:00
8:55 PM,6.6,1.9,81,30.06,10.0,NNW,5.8,-,N/A,,Clear,330,2014-02-15 02:55:00
9:15 PM,7.2,2.7,82,30.07,10.0,NW,6.9,-,N/A,,Clear,310,2014-02-15 03:15:00
9:35 PM,7.3,2.1,79,30.09,10.0,WNW,8.1,-,N/A,,Clear,300,2014-02-15 03:35:00
9:55 PM,7.3,2.7,81,30.10,10.0,NW,8.1,-,N/A,,Clear,310,2014-02-15 03:55:00
10:15 PM,5.4,0.5,80,30.09,10.0,NW,3.5,-,N/A,,Clear,310,2014-02-15 04:15:00
10:35 PM,2.7,-1.3,84,30.08,10.0,Calm,Calm,-,N/A,,Clear,0,2014-02-15 04:35:00
10:55 PM,4.8,1.8,87,30.09,10.0,WSW,4.6,-,N/A,,Clear,250,2014-02-15 04:55:00
11:15 PM,3.6,0.5,87,30.09,10.0,West,6.9,-,N/A,,Clear,270,2014-02-15 05:15:00
11:35 PM,3.2,0.3,88,30.08,10.0,WNW,4.6,-,N/A,,Clear,290,2014-02-15 05:35:00
11:55 PM,3.4,-0.2,85,30.07,10.0,Calm,Calm,-,N/A,,Clear,0,2014-02-15 05:55:00